| time (UTC) | temp F | wind direction | speed MPH | gust MPH | rain 1hr in | rain 24hr in | rain mn in | humidity % | barometer mb |
| 20260503195504 | 84 | 191 | 1.0 | 4.0 | 0.00 | 0.00 | 0.00 | 39 | 1020.7 |
| 20260503195010 | 83 | 226 | 0.0 | 2.0 | 0.00 | 0.00 | 0.00 | 38 | 1020.8 |
| 20260503194521 | 83 | 171 | 0.0 | 2.0 | 0.00 | 0.00 | 0.00 | 38 | 1020.9 |
| 20260503194003 | 84 | 79 | 0.0 | 3.0 | 0.00 | 0.00 | 0.00 | 36 | 1020.8 |
| 20260503193507 | 83 | 248 | 0.0 | 3.0 | 0.00 | 0.00 | 0.00 | 42 | 1020.9 |
| 20260503193017 | 83 | 25 | 0.0 | 3.0 | 0.00 | 0.00 | 0.00 | 38 | 1021.1 |
| 20260503192504 | 82 | 148 | 0.0 | 2.0 | 0.00 | 0.00 | 0.00 | 41 | 1021.2 |
| 20260503192008 | 81 | 242 | 1.0 | 4.0 | 0.00 | 0.00 | 0.00 | 37 | 1021.3 |
| 20260503191517 | 81 | 255 | 0.0 | 4.0 | 0.00 | 0.00 | 0.00 | 47 | 1021.2 |
| 20260503191012 | 82 | 15 | 2.0 | 4.0 | 0.00 | 0.00 | 0.00 | 36 | 1021.3 |
| 20260503190506 | 83 | 123 | 0.0 | 3.0 | 0.00 | 0.00 | 0.00 | 39 | 1021.5 |
| 20260503190012 | 83 | 152 | 0.0 | 3.0 | 0.00 | 0.00 | 0.00 | 39 | 1021.6 |
| 20260503185507 | 82 | 293 | 0.0 | 3.0 | 0.00 | 0.00 | 0.00 | 40 | 1021.5 |
| 20260503185011 | 82 | 233 | 0.0 | 4.0 | 0.00 | 0.00 | 0.00 | 41 | 1021.5 |
| 20260503184529 | 82 | 195 | 0.0 | 6.0 | 0.00 | 0.00 | 0.00 | 41 | 1021.6 |
| 20260503184011 | 81 | 248 | 0.0 | 6.0 | 0.00 | 0.00 | 0.00 | 43 | 1021.7 |
| 20260503183504 | 80 | 263 | 2.0 | 4.0 | 0.00 | 0.00 | 0.00 | 46 | 1021.8 |
| 20260503183027 | 80 | 63 | 1.0 | 4.0 | 0.00 | 0.00 | 0.00 | 41 | 1021.8 |
| 20260503182507 | 79 | 88 | 1.0 | 2.0 | 0.00 | 0.00 | 0.00 | 41 | 1021.8 |
| 20260503182007 | 79 | 53 | 0.0 | 4.0 | 0.00 | 0.00 | 0.00 | 44 | 1021.9 |
| 20260503181524 | 78 | 72 | 0.0 | 4.0 | 0.00 | 0.00 | 0.00 | 40 | 1022.1 |
| 20260503181004 | 79 | 32 | 2.0 | 4.0 | 0.00 | 0.00 | 0.00 | 39 | 1022.2 |
| 20260503180509 | 80 | 47 | 1.0 | 3.0 | 0.00 | 0.00 | 0.00 | 40 | 1022.2 |
| 20260503180024 | 80 | 155 | 0.0 | 3.0 | 0.00 | 0.00 | 0.00 | 43 | 1022.4 |
| 20260503175507 | 79 | 222 | 1.0 | 3.0 | 0.00 | 0.00 | 0.00 | 44 | 1022.5 |
| 20260503175013 | 79 | 78 | 1.0 | 3.0 | 0.00 | 0.00 | 0.00 | 42 | 1022.5 |
| 20260503174523 | 79 | 81 | 1.0 | 3.0 | 0.00 | 0.00 | 0.00 | 43 | 1022.7 |
| 20260503174004 | 80 | 47 | 2.0 | 3.0 | 0.00 | 0.00 | 0.00 | 40 | 1022.7 |
| 20260503173508 | 81 | 99 | 0.0 | 3.0 | 0.00 | 0.00 | 0.00 | 40 | 1022.9 |
| 20260503173020 | 81 | 267 | 0.0 | 3.0 | 0.00 | 0.00 | 0.00 | 41 | 1023.0 |
| 20260503172509 | 81 | 205 | 0.0 | 2.0 | 0.00 | 0.00 | 0.00 | 43 | 1023.0 |
| 20260503172013 | 81 | 294 | 0.0 | 4.0 | 0.00 | 0.00 | 0.00 | 44 | 1023.0 |
| 20260503171518 | 80 | 190 | 0.0 | 4.0 | 0.00 | 0.00 | 0.00 | 48 | 1023.1 |
| 20260503171010 | 79 | 203 | 0.0 | 2.0 | 0.00 | 0.00 | 0.00 | 45 | 1023.2 |
| 20260503170508 | 78 | 213 | 0.0 | 2.0 | 0.00 | 0.00 | 0.00 | 47 | 1023.2 |
| 20260503151003 | 69 | 203 | 0.0 | 3.0 | 0.00 | 0.00 | 0.00 | 66 | 1023.1 |
| 20260503150503 | 68 | 91 | 0.0 | 3.0 | 0.00 | 0.00 | 0.00 | 66 | 1023.0 |
| 20260503131003 | 54 | 324 | 0.0 | 0.0 | 0.00 | 0.01 | 0.00 | 97 | 1022.5 |
| 20260503130507 | 54 | 324 | 0.0 | 0.0 | 0.00 | 0.01 | 0.00 | 97 | 1022.4 |
| 20260503110510 | 51 | 325 | 0.0 | 0.0 | 0.00 | 0.01 | 0.00 | 95 | 1021.6 |
| 20260503090507 | 52 | 324 | 0.0 | 0.0 | 0.00 | 0.01 | 0.00 | 95 | 1021.0 |
| 20260503081543 | 54 | 324 | 0.0 | 0.0 | 0.00 | 0.01 | 0.00 | 95 | 1021.2 |
| 20260503081010 | 53 | 325 | 0.0 | 0.0 | 0.00 | 0.01 | 0.00 | 94 | 1021.3 |
| 20260503080507 | 53 | 325 | 0.0 | 0.0 | 0.00 | 0.01 | 0.00 | 95 | 1021.2 |
| 20260503072507 | 54 | 325 | 0.0 | 0.0 | 0.00 | 0.01 | 0.00 | 94 | 1021.3 |
| 20260503072011 | 54 | 325 | 0.0 | 0.0 | 0.00 | 0.01 | 0.00 | 94 | 1021.3 |
| 20260503071534 | 54 | 325 | 0.0 | 0.0 | 0.00 | 0.01 | 0.00 | 94 | 1021.3 |
| 20260503071009 | 54 | 325 | 0.0 | 0.0 | 0.00 | 0.01 | 0.00 | 94 | 1021.3 |
| 20260503070507 | 54 | 325 | 0.0 | 0.0 | 0.00 | 0.01 | 0.00 | 94 | 1021.4 |
| 20260503055003 | 55 | 325 | 0.0 | 0.0 | 0.00 | 0.01 | 0.00 | 93 | 1021.4 |
| 20260503054505 | 55 | 325 | 0.0 | 0.0 | 0.00 | 0.01 | 0.00 | 93 | 1021.5 |
| 20260503054004 | 55 | 325 | 0.0 | 0.0 | 0.00 | 0.01 | 0.00 | 93 | 1021.5 |
| 20260503053503 | 55 | 325 | 0.0 | 0.0 | 0.00 | 0.01 | 0.00 | 93 | 1021.5 |
| 20260503053027 | 55 | 325 | 0.0 | 0.0 | 0.00 | 0.01 | 0.00 | 93 | 1021.5 |
| 20260503052509 | 55 | 325 | 0.0 | 0.0 | 0.00 | 0.01 | 0.00 | 93 | 1021.3 |
| 20260503052006 | 56 | 325 | 0.0 | 0.0 | 0.00 | 0.01 | 0.00 | 93 | 1021.1 |
| 20260503051522 | 56 | 325 | 0.0 | 0.0 | 0.00 | 0.01 | 0.00 | 93 | 1021.1 |
| 20260503051005 | 56 | 325 | 0.0 | 0.0 | 0.00 | 0.01 | 0.00 | 93 | 1021.2 |
| 20260503050503 | 56 | 325 | 0.0 | 0.0 | 0.00 | 0.01 | 0.00 | 93 | 1021.2 |
| 20260503050020 | 56 | 325 | 0.0 | 0.0 | 0.00 | 0.01 | 0.00 | 92 | 1021.4 |
| 20260503045505 | 56 | 325 | 0.0 | 0.0 | 0.00 | 0.01 | 0.01 | 92 | 1021.3 |
| 20260503045012 | 56 | 325 | 0.0 | 0.0 | 0.00 | 0.01 | 0.01 | 92 | 1021.2 |
| 20260503044534 | 56 | 325 | 0.0 | 0.0 | 0.00 | 0.01 | 0.01 | 92 | 1021.1 |
| 20260503044004 | 56 | 325 | 0.0 | 0.0 | 0.00 | 0.01 | 0.01 | 91 | 1021.1 |
| 20260503043507 | 56 | 325 | 0.0 | 0.0 | 0.00 | 0.01 | 0.01 | 91 | 1021.1 |
| 20260503043016 | 57 | 325 | 0.0 | 0.0 | 0.00 | 0.01 | 0.01 | 91 | 1021.1 |
| 20260503042503 | 57 | 325 | 0.0 | 0.0 | 0.00 | 0.01 | 0.01 | 91 | 1021.0 |
| 20260503042009 | 57 | 325 | 0.0 | 0.0 | 0.00 | 0.01 | 0.01 | 91 | 1021.0 |
| 20260503041514 | 57 | 325 | 0.0 | 0.0 | 0.00 | 0.01 | 0.01 | 91 | 1021.0 |
| 20260503041007 | 57 | 325 | 0.0 | 0.0 | 0.00 | 0.01 | 0.01 | 92 | 1021.1 |
| 20260503040509 | 57 | 324 | 0.0 | 0.0 | 0.00 | 0.01 | 0.01 | 91 | 1021.0 |
| 20260503040010 | 57 | 324 | 0.0 | 0.0 | 0.00 | 0.01 | 0.01 | 91 | 1021.1 |
| 20260503035508 | 57 | 324 | 0.0 | 0.0 | 0.00 | 0.01 | 0.01 | 90 | 1021.1 |
| 20260503035007 | 57 | 324 | 0.0 | 0.0 | 0.00 | 0.01 | 0.01 | 90 | 1021.1 |
| 20260503034528 | 57 | 324 | 0.0 | 0.0 | 0.00 | 0.01 | 0.01 | 90 | 1021.0 |
| 20260503034004 | 57 | 324 | 0.0 | 0.0 | 0.00 | 0.01 | 0.01 | 90 | 1020.8 |
| 20260503033508 | 58 | 325 | 0.0 | 0.0 | 0.00 | 0.01 | 0.01 | 89 | 1020.7 |
| 20260503033023 | 58 | 324 | 0.0 | 0.0 | 0.00 | 0.01 | 0.01 | 89 | 1020.7 |
| 20260503032509 | 58 | 324 | 0.0 | 0.0 | 0.00 | 0.01 | 0.01 | 89 | 1020.7 |
| 20260503032006 | 58 | 325 | 0.0 | 0.0 | 0.00 | 0.01 | 0.01 | 89 | 1020.6 |
| 20260503031523 | 58 | 324 | 0.0 | 0.0 | 0.00 | 0.01 | 0.01 | 89 | 1020.5 |
| 20260503031004 | 58 | 325 | 0.0 | 0.0 | 0.00 | 0.01 | 0.01 | 88 | 1020.5 |
| 20260503030511 | 58 | 325 | 0.0 | 0.0 | 0.00 | 0.01 | 0.01 | 88 | 1020.6 |
| 20260503030019 | 59 | 324 | 0.0 | 0.0 | 0.00 | 0.01 | 0.01 | 87 | 1020.5 |
| 20260503025506 | 59 | 324 | 0.0 | 0.0 | 0.00 | 0.01 | 0.01 | 87 | 1020.4 |
| 20260503025008 | 59 | 325 | 0.0 | 0.0 | 0.00 | 0.01 | 0.01 | 87 | 1020.4 |
| 20260503024520 | 59 | 324 | 0.0 | 0.0 | 0.00 | 0.01 | 0.01 | 86 | 1020.6 |
| 20260503024003 | 59 | 324 | 0.0 | 0.0 | 0.00 | 0.01 | 0.01 | 86 | 1020.6 |
| 20260503023510 | 60 | 324 | 0.0 | 0.0 | 0.00 | 0.01 | 0.01 | 85 | 1020.6 |
| 20260503023019 | 60 | 324 | 0.0 | 0.0 | 0.00 | 0.01 | 0.01 | 85 | 1020.4 |
| 20260503022507 | 60 | 324 | 0.0 | 0.0 | 0.00 | 0.01 | 0.01 | 85 | 1020.3 |
| 20260503022015 | 60 | 325 | 0.0 | 0.0 | 0.00 | 0.01 | 0.01 | 84 | 1020.3 |
| 20260503021514 | 60 | 324 | 0.0 | 0.0 | 0.00 | 0.01 | 0.01 | 84 | 1020.2 |
| 20260503021008 | 61 | 324 | 0.0 | 0.0 | 0.00 | 0.01 | 0.01 | 83 | 1020.3 |
| 20260503020509 | 61 | 324 | 0.0 | 0.0 | 0.00 | 0.01 | 0.01 | 83 | 1020.3 |
| 20260503020010 | 61 | 324 | 0.0 | 0.0 | 0.00 | 0.01 | 0.01 | 83 | 1020.1 |
| 20260503015509 | 61 | 324 | 0.0 | 0.0 | 0.00 | 0.01 | 0.01 | 82 | 1020.0 |
| 20260503015005 | 62 | 324 | 0.0 | 0.0 | 0.00 | 0.01 | 0.01 | 80 | 1020.0 |
| 20260503014527 | 62 | 325 | 0.0 | 0.0 | 0.00 | 0.01 | 0.01 | 79 | 1020.0 |
| 20260503014008 | 63 | 324 | 0.0 | 0.0 | 0.00 | 0.01 | 0.01 | 78 | 1019.9 |
| 20260503013505 | 63 | 324 | 0.0 | 0.0 | 0.00 | 0.01 | 0.01 | 75 | 1019.9 |
| 20260503013034 | 64 | 324 | 0.0 | 0.0 | 0.00 | 0.01 | 0.01 | 74 | 1019.8 |
| 20260503012507 | 64 | 324 | 0.0 | 0.0 | 0.00 | 0.01 | 0.01 | 73 | 1019.8 |
| 20260503012014 | 65 | 324 | 0.0 | 0.0 | 0.00 | 0.01 | 0.01 | 73 | 1019.7 |
| 20260503011529 | 66 | 324 | 0.0 | 0.0 | 0.00 | 0.02 | 0.01 | 72 | 1019.5 |
| 20260503011004 | 66 | 324 | 0.0 | 0.0 | 0.00 | 0.02 | 0.01 | 72 | 1019.6 |
| 20260503010507 | 67 | 324 | 0.0 | 0.0 | 0.00 | 0.02 | 0.01 | 69 | 1019.6 |
| 20260503010023 | 68 | 324 | 0.0 | 0.0 | 0.00 | 0.02 | 0.01 | 68 | 1019.5 |
| 20260503005503 | 69 | 324 | 0.0 | 0.0 | 0.00 | 0.02 | 0.01 | 67 | 1019.4 |
| 20260503005008 | 69 | 324 | 0.0 | 0.0 | 0.00 | 0.02 | 0.01 | 68 | 1019.3 |
| 20260503004517 | 70 | 324 | 0.0 | 0.0 | 0.00 | 0.02 | 0.01 | 65 | 1019.3 |
| 20260503004011 | 70 | 324 | 0.0 | 1.0 | 0.00 | 0.03 | 0.01 | 62 | 1019.2 |
| 20260503003508 | 71 | 324 | 0.0 | 1.0 | 0.00 | 0.04 | 0.01 | 62 | 1019.1 |
| 20260503003018 | 71 | 356 | 0.0 | 1.0 | 0.00 | 0.05 | 0.01 | 60 | 1019.1 |
| 20260503002515 | 71 | 356 | 0.0 | 4.0 | 0.00 | 0.06 | 0.01 | 59 | 1019.1 |
| 20260503002008 | 72 | 306 | 0.0 | 4.0 | 0.00 | 0.07 | 0.01 | 56 | 1019.1 |
| 20260503001516 | 72 | 338 | 0.0 | 3.0 | 0.00 | 0.07 | 0.01 | 55 | 1019.1 |
| 20260503001017 | 72 | 321 | 0.0 | 5.0 | 0.00 | 0.08 | 0.01 | 55 | 1019.0 |
| 20260503000506 | 72 | 39 | 0.0 | 5.0 | 0.00 | 0.09 | 0.01 | 54 | 1018.9 |
| 20260503000036 | 72 | 33 | 0.0 | 3.0 | 0.00 | 0.09 | 0.01 | 57 | 1018.9 |
| 20260502235507 | 73 | 354 | 0.0 | 1.0 | 0.00 | 0.12 | 0.01 | 57 | 1018.9 |
| 20260502235006 | 73 | 115 | 0.0 | 1.0 | 0.00 | 0.13 | 0.01 | 56 | 1018.8 |
| 20260502234528 | 73 | 117 | 0.0 | 3.0 | 0.00 | 0.14 | 0.01 | 54 | 1018.8 |
| 20260502234011 | 73 | 92 | 0.0 | 3.0 | 0.00 | 0.16 | 0.01 | 55 | 1018.7 |
| 20260502233512 | 74 | 113 | 0.0 | 4.0 | 0.00 | 0.17 | 0.01 | 53 | 1018.7 |
| 20260502233024 | 74 | 148 | 0.0 | 4.0 | 0.00 | 0.17 | 0.01 | 53 | 1018.8 |
| 20260502232513 | 74 | 50 | 0.0 | 2.0 | 0.00 | 0.18 | 0.01 | 51 | 1018.8 |
| 20260502232008 | 74 | 295 | 0.0 | 3.0 | 0.00 | 0.18 | 0.01 | 53 | 1018.8 |
| 20260502231523 | 74 | 328 | 0.0 | 3.0 | 0.00 | 0.19 | 0.01 | 53 | 1018.7 |
| 20260502231008 | 75 | 314 | 1.0 | 3.0 | 0.00 | 0.20 | 0.01 | 51 | 1018.7 |
| 20260502230511 | 75 | 96 | 0.0 | 2.0 | 0.00 | 0.20 | 0.01 | 50 | 1018.7 |
| 20260502230024 | 75 | 39 | 0.0 | 2.0 | 0.00 | 0.21 | 0.01 | 51 | 1018.8 |
| 20260502225507 | 75 | 323 | 0.0 | 2.0 | 0.00 | 0.23 | 0.01 | 52 | 1018.8 |
| 20260502225006 | 75 | 125 | 1.0 | 2.0 | 0.00 | 0.27 | 0.01 | 50 | 1018.8 |
| 20260502224523 | 76 | 72 | 0.0 | 2.0 | 0.00 | 0.29 | 0.01 | 49 | 1018.8 |
| 20260502224010 | 76 | 60 | 0.0 | 2.0 | 0.00 | 0.30 | 0.01 | 50 | 1018.8 |
| 20260502223511 | 76 | 78 | 1.0 | 2.0 | 0.00 | 0.31 | 0.01 | 49 | 1018.8 |
| 20260502223020 | 76 | 75 | 0.0 | 1.0 | 0.00 | 0.31 | 0.01 | 53 | 1018.8 |
| 20260502222507 | 76 | 88 | 0.0 | 1.0 | 0.00 | 0.31 | 0.01 | 51 | 1018.8 |
| 20260502222006 | 76 | 67 | 0.0 | 4.0 | 0.00 | 0.31 | 0.01 | 52 | 1019.0 |
| 20260502221533 | 76 | 343 | 1.0 | 4.0 | 0.00 | 0.31 | 0.01 | 49 | 1018.9 |
| 20260502221006 | 76 | 88 | 0.0 | 2.0 | 0.00 | 0.31 | 0.01 | 51 | 1019.0 |
| 20260502220507 | 76 | 93 | 0.0 | 3.0 | 0.00 | 0.31 | 0.01 | 50 | 1018.9 |
| 20260502220026 | 76 | 51 | 1.0 | 5.0 | 0.00 | 0.31 | 0.01 | 51 | 1019.1 |
| 20260502215508 | 76 | 98 | 1.0 | 8.0 | 0.00 | 0.31 | 0.01 | 49 | 1019.0 |
| 20260502215008 | 77 | 324 | 2.0 | 8.0 | 0.00 | 0.31 | 0.01 | 48 | 1018.9 |
| 20260502214527 | 76 | 229 | 0.0 | 3.0 | 0.00 | 0.31 | 0.01 | 49 | 1018.9 |
| 20260502214007 | 76 | 77 | 0.0 | 3.0 | 0.00 | 0.33 | 0.01 | 50 | 1019.1 |
| 20260502213509 | 76 | 330 | 1.0 | 3.0 | 0.00 | 0.34 | 0.01 | 48 | 1019.1 |
| 20260502213027 | 77 | 214 | 0.0 | 2.0 | 0.00 | 0.36 | 0.01 | 49 | 1019.2 |
| 20260502212507 | 77 | 115 | 0.0 | 3.0 | 0.00 | 0.39 | 0.01 | 49 | 1019.1 |
| 20260502212010 | 76 | 10 | 1.0 | 3.0 | 0.00 | 0.41 | 0.01 | 48 | 1019.2 |
| 20260502211526 | 76 | 319 | 1.0 | 3.0 | 0.00 | 0.43 | 0.01 | 51 | 1019.2 |
| 20260502211008 | 76 | 95 | 0.0 | 2.0 | 0.00 | 0.45 | 0.01 | 49 | 1019.2 |
| 20260502210502 | 76 | 57 | 0.0 | 2.0 | 0.00 | 0.47 | 0.01 | 51 | 1019.3 |
| 20260502210024 | 76 | 61 | 0.0 | 2.0 | 0.00 | 0.47 | 0.01 | 49 | 1019.4 |
| 20260502205509 | 77 | 72 | 0.0 | 2.0 | 0.00 | 0.48 | 0.01 | 54 | 1019.4 |
| 20260502205007 | 77 | 302 | 0.0 | 5.0 | 0.00 | 0.48 | 0.01 | 50 | 1019.5 |
| 20260502204525 | 77 | 291 | 1.0 | 5.0 | 0.00 | 0.50 | 0.01 | 52 | 1019.5 |
| 20260502204006 | 77 | 320 | 1.0 | 4.0 | 0.00 | 0.50 | 0.01 | 50 | 1019.6 |
| 20260502203503 | 77 | 23 | 1.0 | 4.0 | 0.00 | 0.50 | 0.01 | 51 | 1019.6 |
| 20260502203021 | 76 | 296 | 1.0 | 5.0 | 0.00 | 0.50 | 0.01 | 50 | 1019.6 |
| 20260502202503 | 76 | 313 | 1.0 | 5.0 | 0.00 | 0.51 | 0.01 | 49 | 1019.7 |
| 20260502202011 | 76 | 291 | 0.0 | 5.0 | 0.00 | 0.51 | 0.01 | 54 | 1019.6 |
| 20260502201519 | 75 | 51 | 1.0 | 5.0 | 0.00 | 0.51 | 0.01 | 54 | 1019.7 |
| 20260502201003 | 75 | 323 | 0.0 | 5.0 | 0.00 | 0.52 | 0.01 | 51 | 1019.7 |
| 20260502200512 | 75 | 276 | 1.0 | 7.0 | 0.00 | 0.52 | 0.01 | 51 | 1019.8 |
| 20260502200014 | 75 | 319 | 3.0 | 7.0 | 0.00 | 0.54 | 0.01 | 48 | 1019.8 |